Location: ??????
(55.7522°N, 37.6156°E)
Time: 18:22:21
(UTC+00:00)

Cosmos 1869 - Pass Details

Date: 14 June 2025
Orbit: 464 x 491 km, 82.5° (Epoch: 13 July)

Event Time Altitude Azimuth Distance (km) Brightness Sun altitude
Rises 21:59:56 0° 352° (N) 2,594 8.5 -10.7°
Reaches altitude 10° 22:02:10 10° 360° (N) 1,706 7.4 -10.6°
Maximum altitude 22:05:42 40° 71° (ENE) 747 4.2 -10.6°
Drops below altitude 10° 22:09:13 10° 142° (SE) 1,688 5.4 -10.5°
Enters shadow 22:09:44 - 145° (SE) 1,893 5.6 -10.5°
